This demonstration page uses our WeatherBlox Daily Observations layout. Learn more.

Left ArrowRight Arrow

39.01783, -85.05884

Hourly Observations for May 11, 2018

Temp ( °F °C ) Dew Point ( °F °C ) Humidity (%) Winds ( mph kmh ) Pressure ( in mb ) Visibility ( mi km ) Precip ( " mm )
12:52 am 00:52 Mostly Clear 69 20.6 53 11.7 57 57 E 5 7 29.94 1014 10 16 0.00 0.00
1:52 am 01:52 Mostly Clear 69 20.6 52 11.1 55 55 E 3 6 29.95 1014 10 16 0.00 0.00
2:52 am 02:52 Mostly Clear 67 19.4 52 11.1 59 59 ENE 10 17 29.95 1014 10 16 0.00 0.00
3:52 am 03:52 Partly Cloudy 66 18.9 50 10 56 56 ENE 12 19 29.96 1015 10 16 0.00 0.00
4:52 am 04:52 Clear 64 17.8 51 10.6 63 63 E 7 11 29.98 1015 10 16 0.00 0.00
5:52 am 05:52 Mostly Clear 64 17.8 51 10.6 63 63 ENE 6 9 29.98 1015 10 16 0.00 0.00
6:52 am 06:52 Mostly Cloudy 64 17.8 52 11.1 65 65 E 8 13 29.97 1015 10 16 0.00 0.00
7:52 am 07:52 Mostly Cloudy 65 18.3 53 11.7 66 66 E 8 13 29.98 1015 10 16 0.00 0.00
8:52 am 08:52 Mostly Cloudy 67 19.4 53 11.7 61 61 SE 8 13 29.98 1015 10 16 0.00 0.00
9:52 am 09:52 Partly Cloudy 70 21.1 56 13.3 61 61 SE 3 6 29.99 1016 10 16 0.00 0.00
10:52 am 10:52 Partly Cloudy 75 23.9 61 16.1 62 62 SSW 6 9 29.99 1016 10 16 0.00 0.00
11:52 am 11:52 Mostly Sunny 79 26.1 62 16.7 56 56 W 10 17 30.00 1016 10 16 0.00 0.00
12:52 pm 12:52 Mostly Sunny 82 27.8 60 15.6 47 47 SW 13 20 29.98 1015 10 16 0.00 0.00
1:52 pm 13:52 Partly Cloudy 83 28.3 59 15 44 44 WSW 13 20 29.96 1015 10 16 0.00 0.00
2:52 pm 14:52 Partly Cloudy 85 29.4 60 15.6 43 43 SSW 15 24 29.94 1014 10 16 0.00 0.00
3:52 pm 15:52 Mostly Cloudy 85 29.4 58 14.4 40 40 SW 18 30 29.93 1014 10 16 0.00 0.00
4:52 pm 16:52 Cloudy 84 28.9 58 14.4 41 41 SSW 15 24 29.90 1013 10 16 0.00 0.00
5:52 pm 17:52 Cloudy 84 28.9 58 14.4 41 41 SSW 14 22 29.91 1013 10 16 0.00 0.00
6:52 pm 18:52 Cloudy 82 27.8 58 14.4 44 44 SSW 6 9 29.90 1013 10 16 0.00 0.00
7:52 pm 19:52 Cloudy 79 26.1 58 14.4 49 49 SW 7 11 29.91 1013 10 16 0.00 0.00
8:52 pm 20:52 Mostly Cloudy 76 24.4 59 15 56 56 S 6 9 29.91 1013 10 16 0.00 0.00
9:52 pm 21:52 Cloudy 74 23.3 59 15 60 60 S 6 9 29.92 1013 10 16 0.00 0.00
10:52 pm 22:52 Cloudy 73 22.8 59 15 62 62 S 7 11 29.95 1014 10 16 0.00 0.00
11:52 pm 23:52 Partly Cloudy 70 21.1 59 15 68 68 S 5 7 29.96 1015 10 16 0.00 0.00

Powered by AerisWeather